TimeMST,TemperatureF,Dew PointF,Humidity,Sea Level PressureIn,VisibilityMPH,Wind Direction,Wind SpeedMPH,Gust SpeedMPH,PrecipitationIn,Events,Conditions,WindDirDegrees,DateUTC
12:56 AM,18.0,14.0,84,30.18,-9999.0,WSW,5.8,-,N/A,,Unknown,250,2013-01-06 07:56:00
1:56 AM,18.0,14.0,84,30.17,-9999.0,West,5.8,-,N/A,,Unknown,260,2013-01-06 08:56:00
2:56 AM,21.9,15.1,75,30.13,-9999.0,Calm,Calm,-,N/A,,Unknown,0,2013-01-06 09:56:00
3:56 AM,19.9,15.1,81,30.12,-9999.0,ESE,4.6,-,N/A,,Unknown,110,2013-01-06 10:56:00
4:56 AM,19.0,12.9,77,30.08,-9999.0,SE,5.8,-,N/A,,Unknown,140,2013-01-06 11:56:00
5:56 AM,14.0,10.0,84,30.09,-9999.0,SSE,8.1,-,N/A,,Unknown,160,2013-01-06 12:56:00
6:56 AM,15.1,9.0,77,30.07,-9999.0,SSE,5.8,-,N/A,,Unknown,150,2013-01-06 13:56:00
7:56 AM,17.1,10.0,74,30.04,-9999.0,South,6.9,-,N/A,,Unknown,180,2013-01-06 14:56:00
8:56 AM,17.1,12.0,81,30.02,-9999.0,South,9.2,-,N/A,,Unknown,170,2013-01-06 15:56:00
9:56 AM,21.9,14.0,72,29.99,-9999.0,South,8.1,-,N/A,,Unknown,170,2013-01-06 16:56:00
10:56 AM,26.1,15.1,63,29.94,-9999.0,South,8.1,-,N/A,,Unknown,170,2013-01-06 17:56:00
11:56 AM,28.0,17.1,63,29.90,-9999.0,South,6.9,-,N/A,,Unknown,190,2013-01-06 18:56:00
12:56 PM,33.1,18.0,54,29.86,-9999.0,WSW,9.2,-,N/A,,Unknown,240,2013-01-06 19:56:00
1:56 PM,34.0,19.0,54,29.86,-9999.0,West,8.1,-,N/A,,Unknown,260,2013-01-06 20:56:00
2:56 PM,34.0,21.0,59,29.85,-9999.0,WSW,4.6,-,N/A,,Unknown,240,2013-01-06 21:56:00
3:56 PM,33.1,21.0,61,29.86,-9999.0,WSW,13.8,-,N/A,,Unknown,250,2013-01-06 22:56:00
4:56 PM,33.1,19.9,59,29.85,-9999.0,West,10.4,-,N/A,,Unknown,270,2013-01-06 23:56:00
5:56 PM,30.9,19.9,64,29.86,-9999.0,West,6.9,-,N/A,,Unknown,280,2013-01-07 00:56:00
6:56 PM,30.9,19.0,61,29.87,-9999.0,West,8.1,-,N/A,,Unknown,270,2013-01-07 01:56:00
7:56 PM,32.0,18.0,56,29.85,-9999.0,WNW,6.9,-,N/A,,Unknown,300,2013-01-07 02:56:00
8:56 PM,30.9,17.1,57,29.87,-9999.0,West,9.2,-,N/A,,Unknown,270,2013-01-07 03:56:00
9:56 PM,30.9,19.0,61,29.86,-9999.0,SW,5.8,-,N/A,,Unknown,230,2013-01-07 04:56:00
10:56 PM,30.9,19.9,64,29.86,-9999.0,WSW,9.2,-,N/A,,Unknown,240,2013-01-07 05:56:00
11:56 PM,30.0,21.0,69,29.86,-9999.0,West,12.7,-,N/A,,Unknown,260,2013-01-07 06:56:00